FW1418 Weather Reports


Display with metric or nautical units.
time (UTC)temp
F
wind
direction
speed
MPH
gust
MPH
rain 1hr
in
rain 24hr
in
rain mn
in
humidity
%
barometer
mb
20260906053018 59 127 1.0 3.0 0.00 0.00 0.00 95 1019.2
20260906051521 59 132 1.0 3.0 0.00 0.00 0.00 95 1019.1
20260906050013 60 132 2.0 3.0 0.00 0.00 0.00 94 1019.1
20260906044512 60 132 0.0 2.0 0.00 0.00 0.00 93 1018.9
20260906043008 61 132 1.0 2.0 0.00 0.00 0.00 92 1018.8
20260906041506 62 132 1.0 2.0 0.00 0.00 0.00 91 1018.7
20260906040003 62 132 2.0 3.0 0.00 0.00 0.00 90 1018.8
20260906034600 63 132 1.0 2.0 0.00 0.00 0.00 89 1018.9
20260906034529 63 132 1.0 2.0 0.00 0.00 0.00 89 1018.8
20260906033058 64 135 1.0 3.0 0.00 0.00 0.00 87 1018.8
20260906031603 65 135 0.0 2.0 0.00 0.00 0.00 86 1018.7
20260906030055 67 135 0.0 2.0 0.00 0.00 0.00 83 1018.7
20260906024550 68 135 1.0 3.0 0.00 0.00 0.00 79 1018.6
20260906023104 68 127 2.0 9.0 0.00 0.00 0.00 80 1018.3
20260906021547 68 90 1.0 4.0 0.00 0.00 0.00 84 1018.1
20260906020046 68 57 0.0 4.0 0.00 0.00 0.00 82 1017.9
20260906014556 68 52 1.0 4.0 0.00 0.00 0.00 81 1017.9
20260906013045 68 46 2.0 4.0 0.00 0.00 0.00 81 1017.8
20260906011553 68 68 2.0 4.0 0.00 0.00 0.00 81 1017.6
20260906010044 69 66 2.0 6.0 0.00 0.00 0.00 79 1017.5
20260906004544 69 50 2.0 9.0 0.00 0.00 0.00 77 1017.6
20260906003045 70 51 3.0 9.0 0.00 0.00 0.00 76 1017.5
20260906001543 70 74 3.0 8.0 0.00 0.00 0.00 76 1017.5
20260906000042 70 59 3.0 5.0 0.00 0.00 0.00 76 1017.4
20260905234552 71 38 3.0 6.0 0.00 0.00 0.00 74 1017.6
20260905233041 72 55 3.0 6.0 0.00 0.00 0.00 72 1017.6
20260905231541 72 69 3.0 10.0 0.00 0.00 0.00 70 1017.4
20260905230043 73 56 2.0 8.0 0.00 0.00 0.00 69 1017.2
20260905224544 74 67 4.0 9.0 0.00 0.00 0.00 69 1017.1
20260905223039 74 80 4.0 9.0 0.00 0.00 0.00 68 1017.0
20260905221542 75 24 4.0 11.0 0.00 0.00 0.00 68 1017.0
20260905220037 75 11 4.0 10.0 0.00 0.00 0.00 67 1016.9
20260905214538 75 58 3.0 9.0 0.00 0.00 0.00 69 1016.9
20260905213037 75 68 3.0 11.0 0.00 0.00 0.00 70 1016.9
20260905211536 76 96 3.0 10.0 0.00 0.00 0.00 71 1016.8
20260905210037 77 98 1.0 8.0 0.00 0.00 0.00 70 1016.9
20260905204534 76 52 5.0 11.0 0.00 0.00 0.00 67 1016.9
20260905203033 76 38 4.0 10.0 0.00 0.00 0.00 67 1017.1
20260905201535 76 103 4.0 12.0 0.00 0.00 0.00 70 1017.0
20260905200044 76 119 6.0 11.0 0.00 0.00 0.00 70 1016.9
20260905194529 76 112 5.0 9.0 0.00 0.00 0.00 70 1017.1
20260905193029 75 93 6.0 11.0 0.00 0.00 0.00 72 1017.2
20260905191535 75 114 5.0 11.0 0.00 0.00 0.00 76 1017.4
20260905190043 76 106 4.0 10.0 0.00 0.00 0.00 77 1017.6
20260905184529 76 121 3.0 8.0 0.00 0.00 0.00 76 1017.5
20260905183026 76 146 2.0 8.0 0.00 0.00 0.00 75 1017.5
20260905181526 75 121 5.0 9.0 0.00 0.00 0.00 75 1017.5
20260905180024 75 138 4.0 9.0 0.00 0.00 0.00 75 1017.5
20260905174521 74 98 3.0 8.0 0.00 0.00 0.00 75 1017.6
20260905173022 73 87 6.0 9.0 0.00 0.00 0.00 76 1017.6
20260905171520 73 104 3.0 9.0 0.00 0.00 0.00 78 1017.8
20260905170019 73 113 6.0 10.0 0.00 0.00 0.00 77 1017.8
20260905164527 74 134 2.0 7.0 0.00 0.00 0.00 78 1017.8
20260905163016 73 142 3.0 9.0 0.00 0.00 0.00 79 1017.7
20260905161515 72 134 3.0 9.0 0.00 0.00 0.00 79 1017.8
20260905160013 72 111 4.0 9.0 0.00 0.00 0.00 79 1017.9
20260905154511 72 109 2.0 9.0 0.00 0.00 0.00 80 1017.9
20260905153012 71 101 5.0 10.0 0.00 0.00 0.00 81 1017.9
20260905151507 71 99 4.0 9.0 0.00 0.00 0.00 81 1017.5
20260905150005 71 111 3.0 8.0 0.00 0.00 0.00 82 1017.6
20260905144503 71 101 4.0 8.0 0.00 0.00 0.00 83 1017.2
20260905143100 70 118 2.0 8.0 0.00 0.00 0.00 85 1017.3
20260905141600 71 90 4.0 9.0 0.00 0.00 0.00 83 1017.1
20260905140105 70 125 3.0 10.0 0.00 0.00 0.00 83 1016.9
20260905134554 69 108 6.0 11.0 0.00 0.00 0.00 82 1016.7
20260905133051 69 141 4.0 9.0 0.00 0.00 0.00 83 1016.8
20260905131604 69 135 4.0 11.0 0.00 0.00 0.00 84 1016.8
20260905130051 69 141 6.0 12.0 0.00 0.00 0.00 83 1016.9
20260905124549 68 111 5.0 11.0 0.00 0.00 0.00 85 1016.8
20260905123047 68 127 3.0 10.0 0.00 0.00 0.00 85 1016.6
20260905121550 68 134 6.0 11.0 0.00 0.00 0.00 86 1016.7
20260905120045 68 160 4.0 10.0 0.00 0.00 0.00 87 1016.4
20260905114543 68 111 5.0 10.0 0.00 0.00 0.00 87 1016.4
20260905113043 67 130 5.0 10.0 0.00 0.00 0.00 88 1016.2
20260905111602 67 116 6.0 12.0 0.00 0.00 0.00 89 1016.3
20260905110040 67 136 6.0 12.0 0.00 0.00 0.00 90 1016.2
20260905104538 67 136 4.0 12.0 0.00 0.00 0.00 90 1016.0
20260905103037 67 108 6.0 14.0 0.00 0.00 0.00 88 1016.0
20260905101535 68 99 4.0 12.0 0.00 0.00 0.00 89 1016.0
20260905100033 68 107 4.0 9.0 0.00 0.00 0.00 88 1015.9
20260905094531 68 122 7.0 12.0 0.00 0.00 0.00 88 1015.7
20260905093031 68 115 5.0 10.0 0.00 0.00 0.00 87 1015.6
20260905091530 68 115 4.0 9.0 0.00 0.00 0.00 86 1015.6
20260905090028 68 100 5.0 9.0 0.00 0.00 0.00 86 1015.6
20260905084530 68 106 4.0 8.0 0.00 0.00 0.00 86 1015.6
20260905083028 68 126 4.0 8.0 0.00 0.00 0.00 85 1015.6
20260905081527 68 131 3.0 7.0 0.00 0.00 0.00 85 1015.6
20260905080025 68 111 3.0 9.0 0.00 0.00 0.00 86 1015.6
20260905074524 68 130 4.0 9.0 0.00 0.00 0.00 87 1015.6
20260905073025 68 108 4.0 8.0 0.00 0.00 0.00 87 1015.7
20260905071536 68 100 3.0 10.0 0.00 0.00 0.00 89 1015.3
20260905070020 68 115 3.0 8.0 0.00 0.00 0.00 90 1015.4
20260905064519 68 134 4.0 9.0 0.00 0.00 0.00 90 1015.3
20260905063017 68 103 3.0 8.0 0.00 0.00 0.00 91 1015.2
20260905061520 68 117 5.0 10.0 0.00 0.00 0.00 92 1015.2
20260905060017 68 108 4.0 9.0 0.00 0.00 0.00 94 1015.3
20260905054535 68 94 4.0 9.0 0.00 0.00 0.00 94 1015.2